313  
ASUS41 KOKX 170505  
RWROKX  
 
REGIONAL WEATHER ROUNDUP  
NATIONAL WEATHER SERVICE NEW YORK NY  
100 AM EDT WED OCT 17 2018  
 
NOTE: "FAIR" INDICATES FEW OR NO CLOUDS BELOW 12,000 FEET WITH NO  
SIGNIFICANT WEATHER AND/OR S TO VISIBILITY
.  
 
NYZ071-072-176-178-NJZ106-104-170600-  
NEW YORK CITY METRO AREA  
 
CITY SKY/WX TMP DP RH WIND PRES REMARKS
 
CENTRAL PARK FAIR 50 39 66 MISG 30.07F  
BRONX LEHMAN C N/A 50 37 62 W5 N/A  
LAGUARDIA ARPT NOT AVBL  
QUEENS COLLEGE N/A 52 36 54 SW7 N/A  
KENNEDY INTL NOT AVBL  
BREEZY POINT N/A 52 N/A N/A W8G16 N/A  
BROOKLYN COLL N/A 52 36 54 SW5 N/A  
STATEN ISLAND N/A 48 37 66 SW3 N/A  
NEWARK/LIBERTY NOT AVBL  
TETERBORO NOT AVBL  

 
 
NYZ177-179-078>081-170600-  
LONG ISLAND NEW YORK  
 
CITY SKY/WX TMP DP RH WIND PRES REMARKS
 
JONES BEACH N/A 52 N/A N/A W9 N/A  
WANTAGH N/A 48 36 61 W3 N/A  
HEMPSTEAD N/A 50 39 66 CALM 30.08F  
MATINECOCK PT N/A 54 N/A N/A W18 N/A  
FARMINGDALE NOT AVBL  
MACARTHUR/ISP NOT AVBL  
STONY BROOK N/A 48 37 66 SW1 N/A  
SHIRLEY NOT AVBL  
MT SINAI HARB N/A N/A N/A N/A SW5 N/A  
WESTHAMPTON NOT AVBL  
EAST HAMPTON NOT AVBL  
SOUTHOLD N/A 48 37 66 SW5 N/A  
MONTAUK N/A 53 40 61 SW9 30.05S  

 
 
NYZ052-065-067-170600-  
HUDSON VALLEY  
 
CITY SKY/WX TMP DP RH WIND PRES REMARKS
 
WHITE PLAINS NOT AVBL  
LARCHMONT HARB N/A 50 N/A N/A SW6 N/A  
CROTON ON HUDS N/A 46 N/A N/A NE1 N/A  
SOMERS N/A 41 37 87 W1 N/A  
BREWSTER N/A 39 37 93 S2 N/A  
NEWBURGH NOT AVBL  
MONTGOMERY NOT AVBL  
OTISVILLE N/A 39 36 87 SW2 N/A  
WARWICK N/A 39 39 100 SW1 N/A  
SUFFERN N/A 41 39 93 S2 N/A  
POUGHKEEPSIE NOT AVBL  
ALBANY NOT AVBL  

 
 
NJZ001-105-106-008-010-013-015-019>022-104-170600-  
NEW JERSEY  
 
CITY SKY/WX TMP DP RH WIND PRES REMARKS
 
NEWARK/LIBERTY NOT AVBL  
TETERBORO NOT AVBL  
CALDWELL NOT AVBL  
SOMERVILLE NOT AVBL  
LINDEN NOT AVBL  
PERTH AMBOY N/A 48 N/A N/A SW5 N/A  
SUSSEX NOT AVBL  
ANDOVER N/A 41 38 89 CALM 30.05S  
TRENTON NOT AVBL  
MILLVILLE NOT AVBL  
ATLANTIC CITY NOT AVBL  
WRIGHTSTOWN NOT AVBL  
TOMS RIVER NOT AVBL  
BELMAR NOT AVBL  

 
 
PAZ047>061-062-071-170600-  
EASTERN PENNSYLVANIA  
 
CITY SKY/WX TMP DP RH WIND PRES REMARKS
 
PHILADELPHIA NOT AVBL  
ALLENTOWN NOT AVBL  
SCRANTON NOT AVBL  

 
 
CTZ002-004>006-009-010-012-RIZ004-006-007-MAZ004-011-015-170600-  
SOUTHERN NEW ENGLAND  
 
IN CT  
 
CITY SKY/WX TMP DP RH WIND PRES REMARKS
 
BRADLEY INTL NOT AVBL  
HARTFORD NOT AVBL  
DANBURY NOT AVBL  
WTRBURY/OXFORD NOT AVBL  
NORWALK HARBOR N/A 48 N/A N/A W14 N/A  
BRIDGEPORT NOT AVBL  
MERIDEN NOT AVBL  
NEW HAVEN NOT AVBL  
CHESTER NOT AVBL  
GROTON NOT AVBL  
WILLIMANTIC NOT AVBL  
 
IN RI  
 
CITY SKY/WX TMP DP RH WIND PRES REMARKS
 
PROVIDENCE NOT AVBL  
BLOCK ISLAND NOT AVBL  
WESTERLY NOT AVBL  
 
IN MA  
 
CITY SKY/WX TMP DP RH WIND PRES REMARKS
 
BOSTON NOT AVBL  
WORCESTER NOT AVBL  
WESTFIELD NOT AVBL  
PROVINCETOWN NOT AVBL  
NANTUCKET NOT AVBL  

 
 
ANZ330-335-338-340-345-350-353-355-170600-  
COASTAL MARINE OBSERVATIONS  
 
 
STATION/POSITION TIME SKY/WX TEMP WIND PRES VSBY WAVE
 
AIR SEA DIR/SP/G HT/PER  
(UTC) (F) (DEG/KT/KT) (MB) (MI) (FT/S)  
NY HARB ENTRANCE 0450 56 68 250/ 16/ 19 1017.8 2/ 3  
20 S FIRE ISLAND 0450 58 65 270/ 17/ 21 1017.7 4/ 5  
GREAT SOUTH BAY 0430 53 60 270/ 10/ 14 N/A  
23 SSW MONTAUK P 0450 56 64 270/ 16/ 19 1017.3 4/ 5  
15 E BARNEGAT LI 0500 70 N/A 3/ 4  
HUDSON CANYON 0450 61 290/ 17/ 21 1018.2 4/ 4  
KINGS POINT 0436 54 66 320/ 10/ 14 1018.5  
EXECUTION ROCKS 0445 66 250/ 10/ 12 N/A  
WESTERN LI SOUND NOT AVBL  
CENTRAL LI SOUND 0415 57 68 270/ 19/ 23 N/A 3/ 4  
ROBBINS REEF 0436 51 250/ 9/ 11 1018.3  

 
 
>>>>>>>>>>>>>>>>>>>>>>>>>>>> KEY <<<<<<<<<<<<<<<<<<<<<<<<<<<  
> <  
> SKY/WX - SKY CONDITION/PRESENT WEATHER <  
> TMP - TEMPERATURE IN FAHRENHEIT <  
> DP - DEW POINT IN FAHRENHEIT <  
> RH - RELATIVE HUMIDITY IN PERCENT <  
> WIND - DIRECTION (FROM) AND SPEED IN MPH <  
> PRES - MEAN SEA LEVEL PRESSURE (INCHES OF HG) <  
> WCI - WIND CHILL INDEX <  
> VSB - VISIBILITY IN MILES <  
> HX - HEAT INDEX <  
> TC - TEMPERATURE IN CELSIUS <  
> VRB - VARIABLE WIND DIRECTION <  
> <  
>>>>>>>>>>>>>>>>>>>>>>>>>>>> KEY <<<<<<<<<<<<<<<<<<<<<<<<<<<  
 
 
CLICK HERE TO GO TO PREVIOUS BULLETINS.

The Nexlab NY Page
The Nexlab NJ Page
The Nexlab CT Page Main Text Page